QPF
0.00 0.00 0.00 0.00 0.00 0.02 0.02 0.00 0.00 0.00 0.00 0.00 0.00 0.00 0.00 0.00 0.01 0.03 0.01 0.00 0.00 0.00 0.00 0.00 0.00 0.00 0.01 0.02 0.03 0.05 0.04 0.03 0.02 0.05 0.14 0.13 0.14 0.10 0.07 0.07 0.08 0.07 0.07 0.06 0.05 0.04 0.05 0.04 0.05
0.00 0.00 0.00 0.00 0.01 0.02 0.01 0.00 0.00 0.00 0.00 0.00 0.00 0.00 0.00 0.00 0.01 0.01 0.01 0.00 0.00 0.00 0.00 0.00 0.00 0.00 0.01 0.02 0.04 0.04 0.04 0.03 0.03 0.03 0.06 0.09 0.10 0.07 0.05 0.06 0.08 0.06 0.07 0.07 0.06 0.04 0.04 0.04 0.04
0.00 0.00 0.00 0.00 0.01 0.01 0.01 0.00 0.00 0.00 0.00 0.00 0.00 0.00 0.00 0.01 0.01 0.01 0.00 0.00 0.00 0.00 0.00 0.01 0.01 0.01 0.01 0.03 0.04 0.04 0.05 0.03 0.03 0.04 0.04 0.05 0.06 0.05 0.05 0.06 0.06 0.06 0.07 0.08 0.07 0.04 0.04 0.04 0.05
0.00 0.00 0.00 0.00 0.00 0.00 0.00 0.00 0.00 0.00 0.00 0.00 0.00 0.00 0.00 0.01 0.01 0.01 0.00 0.00 0.00 0.00 0.01 0.02 0.01 0.02 0.02 0.03 0.04 0.05 0.07 0.06 0.04 0.04 0.04 0.05 0.06 0.06 0.06 0.06 0.06 0.07 0.07 0.07 0.07 0.07 0.06 0.05 0.05
0.00 0.00 0.01 0.01 0.00 0.00 0.00 0.00 0.00 0.00 0.00 0.00 0.00 0.00 0.01 0.01 0.01 0.00 0.00 0.00 0.00 0.01 0.01 0.01 0.01 0.02 0.02 0.03 0.04 0.06 0.08 0.08 0.08 0.05 0.03 0.04 0.04 0.06 0.08 0.07 0.07 0.08 0.07 0.06 0.06 0.07 0.05 0.06 0.06
0.00 0.00 0.01 0.01 0.01 0.00 0.00 0.00 0.00 0.00 0.00 0.00 0.00 0.00 0.00 0.00 0.01 0.00 0.00 0.00 0.00 0.00 0.01 0.01 0.01 0.01 0.02 0.03 0.03 0.04 0.06 0.07 0.07 0.06 0.05 0.06 0.07 0.08 0.08 0.06 0.06 0.07 0.07 0.06 0.05 0.05 0.05 0.05 0.06
0.00 0.00 0.01 0.01 0.01 0.00 0.00 0.00 0.00 0.00 0.00 0.00 0.00 0.00 0.01 0.00 0.01 0.01 0.00 0.00 0.00 0.00 0.01 0.00 0.00 0.00 0.01 0.01 0.02 0.03 0.04 0.05 0.07 0.06 0.04 0.04 0.04 0.05 0.04 0.04 0.06 0.06 0.05 0.05 0.04 0.05 0.06 0.05 0.05
0.00 0.00 0.01 0.01 0.01 0.00 0.00 0.00 0.00 0.00 0.00 0.00 0.00 0.01 0.02 0.01 0.00 0.01 0.00 0.01 0.01 0.01 0.01 0.01 0.01 0.01 0.01 0.01 0.02 0.03 0.03 0.04 0.05 0.05 0.04 0.03 0.04 0.06 0.06 0.06 0.05 0.05 0.05 0.05 0.04 0.05 0.05 0.06 0.07
0.00 0.00 0.00 0.00 0.01 0.01 0.00 0.00 0.00 0.00 0.00 0.00 0.00 0.00 0.01 0.01 0.01 0.01 0.01 0.01 0.01 0.02 0.02 0.02 0.02 0.03 0.02 0.01 0.01 0.03 0.02 0.03 0.04 0.04 0.03 0.04 0.07 0.10 0.08 0.05 0.05 0.05 0.06 0.07 0.05 0.04 0.04 0.06 0.08
0.00 0.00 0.01 0.00 0.00 0.01 0.00 0.00 0.00 0.00 0.00 0.00 0.00 0.00 0.00 0.03 0.03 0.01 0.01 0.01 0.01 0.02 0.02 0.03 0.03 0.03 0.04 0.02 0.03 0.05 0.03 0.04 0.05 0.05 0.05 0.07 0.10 0.10 0.08 0.07 0.08 0.08 0.07 0.06 0.05 0.05 0.06 0.10 0.13
0.00 0.01 0.01 0.00 0.00 0.00 0.01 0.00 0.00 0.00 0.01 0.00 0.00 0.00 0.00 0.02 0.04 0.03 0.02 0.02 0.03 0.02 0.03 0.02 0.03 0.03 0.04 0.04 0.03 0.04 0.04 0.05 0.07 0.07 0.07 0.09 0.08 0.06 0.07 0.09 0.08 0.09 0.09 0.08 0.07 0.09 0.12 0.14 0.15
0.00 0.00 0.00 0.00 0.00 0.00 0.01 0.00 0.00 0.00 0.01 0.00 0.00 0.00 0.01 0.02 0.03 0.02 0.01 0.01 0.02 0.04 0.05 0.04 0.03 0.03 0.04 0.04 0.04 0.04 0.04 0.05 0.06 0.07 0.07 0.07 0.07 0.05 0.06 0.07 0.07 0.08 0.10 0.12 0.11 0.13 0.10 0.12 0.14
0.00 0.00 0.00 0.00 0.00 0.00 0.00 0.00 0.00 0.00 0.00 0.00 0.00 0.00 0.01 0.02 0.01 0.01 0.01 0.01 0.01 0.03 0.08 0.07 0.04 0.04 0.04 0.04 0.04 0.02 0.03 0.03 0.04 0.05 0.05 0.06 0.06 0.06 0.07 0.06 0.07 0.07 0.09 0.09 0.10 0.11 0.09 0.12 0.13
0.00 0.00 0.00 0.00 0.00 0.00 0.00 0.00 0.00 0.00 0.00 0.00 0.00 0.00 0.00 0.02 0.02 0.02 0.04 0.05 0.03 0.03 0.07 0.07 0.05 0.03 0.03 0.03 0.03 0.03 0.03 0.03 0.03 0.03 0.03 0.06 0.06 0.06 0.06 0.06 0.06 0.06 0.07 0.07 0.09 0.10 0.11 0.13 0.11
0.00 0.00 0.00 0.00 0.00 0.00 0.00 0.01 0.01 0.00 0.00 0.00 0.00 0.00 0.00 0.01 0.01 0.03 0.04 0.07 0.07 0.04 0.04 0.04 0.03 0.02 0.03 0.04 0.04 0.03 0.02 0.02 0.02 0.03 0.03 0.03 0.04 0.05 0.06 0.07 0.05 0.05 0.06 0.07 0.08 0.08 0.10 0.11 0.11
0.00 0.00 0.00 0.02 0.01 0.00 0.00 0.02 0.03 0.00 0.00 0.00 0.00 0.00 0.00 0.00 0.01 0.01 0.02 0.03 0.04 0.05 0.04 0.05 0.04 0.03 0.03 0.04 0.05 0.04 0.04 0.03 0.03 0.03 0.03 0.03 0.04 0.05 0.06 0.06 0.06 0.06 0.06 0.06 0.06 0.08 0.08 0.08 0.10
0.02 0.01 0.01 0.01 0.00 0.00 0.00 0.02 0.01 0.00 0.00 0.00 0.00 0.00 0.00 0.00 0.00 0.01 0.02 0.03 0.03 0.04 0.05 0.04 0.04 0.04 0.03 0.03 0.04 0.04 0.05 0.06 0.06 0.06 0.05 0.03 0.03 0.04 0.05 0.05 0.07 0.07 0.08 0.07 0.06 0.08 0.09 0.09 0.09
0.01 0.00 0.00 0.00 0.00 0.00 0.01 0.01 0.01 0.00 0.00 0.00 0.00 0.00 0.00 0.00 0.00 0.01 0.01 0.01 0.02 0.04 0.06 0.06 0.04 0.04 0.05 0.05 0.05 0.04 0.04 0.06 0.06 0.07 0.06 0.05 0.04 0.04 0.06 0.06 0.06 0.05 0.06 0.07 0.07 0.09 0.09 0.09 0.09
0.00 0.00 0.00 0.00 0.00 0.01 0.02 0.01 0.01 0.00 0.00 0.00 0.00 0.00 0.00 0.00 0.00 0.01 0.01 0.03 0.03 0.05 0.06 0.06 0.07 0.04 0.04 0.05 0.05 0.04 0.05 0.05 0.06 0.05 0.05 0.06 0.06 0.06 0.07 0.07 0.09 0.08 0.08 0.07 0.07 0.09 0.09 0.07 0.09
0.00 0.00 0.01 0.01 0.00 0.01 0.02 0.02 0.01 0.00 0.00 0.00 0.00 0.00 0.00 0.00 0.00 0.01 0.01 0.03 0.05 0.06 0.08 0.09 0.09 0.07 0.05 0.04 0.05 0.05 0.03 0.03 0.03 0.03 0.04 0.06 0.06 0.06 0.07 0.08 0.09 0.11 0.13 0.11 0.10 0.08 0.07 0.06 0.07
0.00 0.00 0.00 0.01 0.01 0.01 0.03 0.05 0.05 0.02 0.00 0.00 0.01 0.00 0.00 0.00 0.00 0.01 0.02 0.01 0.03 0.04 0.05 0.08 0.08 0.07 0.05 0.02 0.02 0.02 0.03 0.03 0.04 0.03 0.03 0.04 0.05 0.05 0.07 0.08 0.09 0.11 0.11 0.12 0.11 0.10 0.09 0.07 0.08
0.01 0.00 0.00 0.01 0.02 0.03 0.03 0.09 0.07 0.02 0.01 0.01 0.01 0.01 0.01 0.00 0.01 0.01 0.01 0.01 0.01 0.01 0.02 0.05 0.07 0.06 0.04 0.03 0.02 0.02 0.03 0.04 0.04 0.04 0.04 0.04 0.04 0.04 0.04 0.07 0.08 0.10 0.11 0.12 0.11 0.13 0.12 0.10 0.10
0.00 0.00 0.00 0.00 0.02 0.03 0.03 0.05 0.06 0.04 0.04 0.02 0.00 0.01 0.02 0.01 0.01 0.02 0.01 0.02 0.02 0.01 0.01 0.02 0.04 0.05 0.04 0.04 0.03 0.03 0.03 0.03 0.04 0.04 0.04 0.04 0.04 0.03 0.04 0.05 0.06 0.06 0.08 0.08 0.10 0.12 0.11 0.10 0.10
0.00 0.00 0.01 0.01 0.02 0.04 0.03 0.04 0.05 0.04 0.03 0.01 0.00 0.01 0.01 0.02 0.02 0.01 0.01 0.02 0.02 0.01 0.01 0.01 0.02 0.03 0.03 0.04 0.04 0.04 0.03 0.03 0.03 0.04 0.04 0.04 0.03 0.03 0.04 0.05 0.05 0.05 0.06 0.06 0.06 0.08 0.08 0.10 0.11
0.01 0.02 0.04 0.05 0.05 0.04 0.02 0.03 0.04 0.03 0.01 0.01 0.00 0.01 0.02 0.02 0.01 0.01 0.02 0.03 0.06 0.05 0.02 0.03 0.03 0.03 0.03 0.03 0.03 0.03 0.02 0.03 0.03 0.03 0.03 0.03 0.03 0.02 0.03 0.03 0.04 0.04 0.05 0.06 0.06 0.07 0.07 0.08 0.08
0.00 0.02 0.04 0.05 0.04 0.05 0.05 0.05 0.05 0.02 0.01 0.00 0.00 0.01 0.01 0.02 0.02 0.02 0.02 0.03 0.04 0.04 0.03 0.04 0.05 0.04 0.04 0.04 0.03 0.03 0.03 0.02 0.03 0.03 0.02 0.03 0.02 0.02 0.03 0.03 0.03 0.03 0.04 0.04 0.06 0.06 0.06 0.07 0.06
0.00 0.00 0.00 0.02 0.02 0.03 0.05 0.05 0.05 0.03 0.02 0.01 0.01 0.02 0.03 0.03 0.01 0.01 0.02 0.02 0.03 0.03 0.03 0.03 0.03 0.04 0.04 0.03 0.02 0.02 0.02 0.01 0.02 0.03 0.04 0.03 0.03 0.02 0.02 0.02 0.02 0.03 0.04 0.04 0.05 0.05 0.05 0.06 0.06
0.00 0.00 0.01 0.03 0.03 0.03 0.04 0.08 0.07 0.04 0.02 0.01 0.02 0.02 0.04 0.03 0.01 0.01 0.01 0.02 0.02 0.03 0.03 0.03 0.02 0.03 0.03 0.03 0.03 0.03 0.02 0.02 0.02 0.03 0.03 0.02 0.02 0.02 0.03 0.02 0.03 0.03 0.03 0.04 0.05 0.05 0.05 0.06 0.08
0.01 0.00 0.01 0.03 0.03 0.03 0.04 0.06 0.05 0.03 0.02 0.01 0.02 0.02 0.02 0.01 0.02 0.02 0.02 0.03 0.02 0.03 0.03 0.03 0.03 0.04 0.04 0.04 0.04 0.04 0.04 0.04 0.04 0.03 0.02 0.03 0.03 0.03 0.03 0.03 0.03 0.03 0.03 0.03 0.04 0.05 0.05 0.06 0.06
0.01 0.00 0.01 0.03 0.04 0.04 0.06 0.06 0.04 0.04 0.04 0.01 0.01 0.01 0.01 0.02 0.02 0.01 0.02 0.03 0.03 0.03 0.03 0.04 0.04 0.04 0.05 0.05 0.05 0.05 0.06 0.06 0.05 0.04 0.03 0.03 0.04 0.03 0.03 0.02 0.02 0.03 0.03 0.03 0.03 0.04 0.03 0.04 0.04
MSLP
1004.77 1005.36 1006.08 1006.75 1007.22 1007.38 1007.18 1006.66 1005.91 1005.08 1004.32 1003.71 1003.32 1003.14 1003.10 1003.12 1003.14 1003.11 1003.07 1003.05 1003.13 1003.38 1003.83 1004.45 1005.19 1005.95 1006.63 1007.16 1007.50 1007.68 1007.74 1007.77 1007.84 1007.99 1008.23 1008.51 1008.78 1008.98 1009.04 1008.95 1008.74 1008.46 1008.16 1007.92 1007.76 1007.72 1007.79 1007.93 1008.13
1004.95 1005.60 1006.28 1006.84 1007.13 1007.07 1006.65 1005.94 1005.05 1004.15 1003.36 1002.78 1002.44 1002.32 1002.34 1002.42 1002.48 1002.51 1002.53 1002.58 1002.75 1003.10 1003.65 1004.37 1005.20 1006.02 1006.75 1007.31 1007.67 1007.86 1007.94 1007.98 1008.07 1008.22 1008.45 1008.72 1008.96 1009.11 1009.13 1009.01 1008.77 1008.47 1008.18 1007.96 1007.83 1007.81 1007.89 1008.03 1008.23
1005.27 1005.93 1006.54 1006.94 1007.02 1006.73 1006.10 1005.21 1004.21 1003.25 1002.46 1001.93 1001.65 1001.58 1001.65 1001.76 1001.85 1001.91 1001.96 1002.06 1002.31 1002.74 1003.38 1004.19 1005.10 1005.99 1006.77 1007.37 1007.77 1007.99 1008.09 1008.16 1008.25 1008.42 1008.64 1008.89 1009.11 1009.23 1009.23 1009.09 1008.86 1008.58 1008.33 1008.15 1008.07 1008.08 1008.18 1008.32 1008.50
1005.67 1006.31 1006.81 1007.03 1006.90 1006.39 1005.56 1004.54 1003.46 1002.49 1001.74 1001.26 1001.05 1001.04 1001.13 1001.26 1001.35 1001.40 1001.46 1001.59 1001.88 1002.38 1003.09 1003.98 1004.95 1005.91 1006.73 1007.37 1007.80 1008.05 1008.19 1008.28 1008.40 1008.57 1008.80 1009.04 1009.24 1009.36 1009.36 1009.24 1009.05 1008.83 1008.65 1008.53 1008.51 1008.56 1008.68 1008.82 1008.97
1006.08 1006.65 1007.00 1007.04 1006.71 1006.02 1005.06 1003.95 1002.86 1001.93 1001.25 1000.85 1000.71 1000.74 1000.86 1000.97 1001.04 1001.06 1001.10 1001.24 1001.55 1002.09 1002.85 1003.79 1004.81 1005.80 1006.67 1007.34 1007.80 1008.08 1008.24 1008.36 1008.50 1008.69 1008.93 1009.17 1009.38 1009.51 1009.54 1009.47 1009.35 1009.21 1009.11 1009.08 1009.11 1009.20 1009.33 1009.45 1009.57
1006.41 1006.86 1007.06 1006.92 1006.42 1005.61 1004.57 1003.46 1002.42 1001.57 1001.00 1000.70 1000.64 1000.71 1000.82 1000.90 1000.93 1000.91 1000.91 1001.03 1001.35 1001.89 1002.68 1003.64 1004.69 1005.71 1006.59 1007.28 1007.77 1008.08 1008.27 1008.42 1008.58 1008.79 1009.04 1009.30 1009.52 1009.68 1009.76 1009.76 1009.71 1009.66 1009.64 1009.68 1009.77 1009.89 1010.02 1010.14 1010.23
1006.59 1006.89 1006.92 1006.64 1006.02 1005.14 1004.10 1003.05 1002.11 1001.40 1000.96 1000.76 1000.76 1000.86 1000.96 1001.00 1000.96 1000.88 1000.84 1000.93 1001.22 1001.76 1002.55 1003.52 1004.57 1005.59 1006.48 1007.18 1007.68 1008.02 1008.24 1008.42 1008.61 1008.84 1009.11 1009.39 1009.65 1009.84 1009.97 1010.03 1010.05 1010.08 1010.13 1010.22 1010.35 1010.50 1010.64 1010.74 1010.81
1006.57 1006.72 1006.60 1006.19 1005.51 1004.62 1003.65 1002.71 1001.91 1001.35 1001.04 1000.95 1001.00 1001.10 1001.16 1001.15 1001.04 1000.89 1000.79 1000.84 1001.10 1001.62 1002.39 1003.34 1004.37 1005.38 1006.27 1006.98 1007.50 1007.86 1008.12 1008.34 1008.57 1008.83 1009.13 1009.43 1009.71 1009.94 1010.10 1010.21 1010.29 1010.36 1010.46 1010.59 1010.75 1010.91 1011.06 1011.17 1011.24
1006.38 1006.37 1006.13 1005.64 1004.93 1004.10 1003.23 1002.43 1001.79 1001.38 1001.19 1001.17 1001.25 1001.33 1001.35 1001.25 1001.07 1000.85 1000.69 1000.68 1000.90 1001.38 1002.11 1003.02 1004.03 1005.01 1005.89 1006.62 1007.16 1007.57 1007.88 1008.15 1008.42 1008.73 1009.06 1009.39 1009.69 1009.95 1010.13 1010.27 1010.37 1010.47 1010.60 1010.74 1010.91 1011.08 1011.24 1011.37 1011.47
1006.06 1005.92 1005.58 1005.05 1004.37 1003.62 1002.87 1002.23 1001.74 1001.46 1001.36 1001.38 1001.45 1001.49 1001.43 1001.26 1000.99 1000.69 1000.46 1000.40 1000.56 1000.99 1001.67 1002.53 1003.50 1004.46 1005.33 1006.06 1006.65 1007.11 1007.48 1007.81 1008.15 1008.51 1008.88 1009.24 1009.57 1009.84 1010.04 1010.19 1010.30 1010.41 1010.53 1010.68 1010.85 1011.03 1011.21 1011.37 1011.52
1005.69 1005.46 1005.07 1004.53 1003.91 1003.25 1002.63 1002.12 1001.76 1001.57 1001.52 1001.54 1001.57 1001.54 1001.40 1001.13 1000.78 1000.41 1000.12 999.99 1000.09 1000.46 1001.07 1001.87 1002.79 1003.71 1004.58 1005.33 1005.96 1006.48 1006.92 1007.34 1007.74 1008.16 1008.58 1008.98 1009.33 1009.62 1009.84 1010.00 1010.12 1010.22 1010.34 1010.48 1010.65 1010.84 1011.03 1011.23 1011.44
1005.35 1005.07 1004.66 1004.16 1003.59 1003.03 1002.52 1002.12 1001.84 1001.70 1001.64 1001.63 1001.60 1001.49 1001.26 1000.91 1000.49 1000.06 999.70 999.51 999.55 999.84 1000.37 1001.11 1001.96 1002.85 1003.70 1004.48 1005.16 1005.74 1006.27 1006.76 1007.24 1007.72 1008.19 1008.63 1009.02 1009.34 1009.58 1009.76 1009.89 1010.00 1010.11 1010.25 1010.42 1010.62 1010.84 1011.07 1011.33
1005.11 1004.82 1004.43 1003.96 1003.47 1002.99 1002.55 1002.21 1001.97 1001.82 1001.73 1001.66 1001.54 1001.35 1001.05 1000.64 1000.16 999.68 999.28 999.03 999.00 999.22 999.67 1000.33 1001.12 1001.97 1002.82 1003.62 1004.34 1004.99 1005.59 1006.15 1006.70 1007.23 1007.75 1008.24 1008.67 1009.03 1009.31 1009.52 1009.68 1009.81 1009.94 1010.09 1010.27 1010.47 1010.72 1010.98 1011.27
1005.01 1004.73 1004.37 1003.96 1003.52 1003.08 1002.68 1002.35 1002.09 1001.90 1001.75 1001.59 1001.41 1001.15 1000.79 1000.35 999.85 999.34 998.91 998.63 998.54 998.69 999.07 999.65 1000.39 1001.20 1002.05 1002.86 1003.63 1004.33 1004.98 1005.60 1006.19 1006.76 1007.32 1007.84 1008.31 1008.72 1009.06 1009.32 1009.53 1009.71 1009.88 1010.06 1010.25 1010.48 1010.73 1011.02 1011.33
1005.04 1004.80 1004.47 1004.09 1003.68 1003.26 1002.86 1002.49 1002.17 1001.90 1001.67 1001.44 1001.18 1000.88 1000.50 1000.05 999.56 999.06 998.63 998.32 998.20 998.29 998.60 999.12 999.82 1000.61 1001.45 1002.29 1003.09 1003.84 1004.53 1005.17 1005.78 1006.37 1006.94 1007.48 1007.99 1008.44 1008.84 1009.18 1009.46 1009.71 1009.93 1010.15 1010.38 1010.62 1010.89 1011.18 1011.49
1005.17 1004.95 1004.66 1004.30 1003.89 1003.45 1003.01 1002.57 1002.17 1001.80 1001.47 1001.16 1000.85 1000.52 1000.15 999.72 999.26 998.80 998.38 998.07 997.93 997.98 998.25 998.74 999.40 1000.20 1001.05 1001.92 1002.76 1003.54 1004.25 1004.91 1005.51 1006.08 1006.64 1007.18 1007.70 1008.19 1008.65 1009.06 1009.42 1009.75 1010.04 1010.31 1010.58 1010.85 1011.12 1011.42 1011.73
1005.34 1005.15 1004.87 1004.52 1004.10 1003.62 1003.11 1002.58 1002.06 1001.58 1001.15 1000.76 1000.41 1000.06 999.70 999.32 998.91 998.49 998.10 997.81 997.66 997.69 997.95 998.42 999.08 999.90 1000.79 1001.70 1002.59 1003.40 1004.13 1004.78 1005.36 1005.89 1006.41 1006.92 1007.44 1007.95 1008.45 1008.93 1009.37 1009.77 1010.13 1010.47 1010.77 1011.07 1011.36 1011.66 1011.96
1005.52 1005.34 1005.08 1004.73 1004.29 1003.76 1003.16 1002.53 1001.89 1001.29 1000.75 1000.28 999.87 999.51 999.16 998.81 998.44 998.07 997.72 997.44 997.29 997.32 997.57 998.05 998.75 999.60 1000.55 1001.53 1002.47 1003.33 1004.08 1004.72 1005.27 1005.77 1006.23 1006.70 1007.19 1007.70 1008.22 1008.74 1009.25 1009.72 1010.14 1010.53 1010.88 1011.20 1011.52 1011.83 1012.13
1005.65 1005.50 1005.27 1004.93 1004.47 1003.90 1003.23 1002.49 1001.73 1001.00 1000.35 999.79 999.31 998.92 998.57 998.23 997.88 997.53 997.19 996.92 996.77 996.80 997.06 997.55 998.28 999.19 1000.22 1001.27 1002.29 1003.21 1004.00 1004.65 1005.18 1005.64 1006.05 1006.47 1006.93 1007.42 1007.94 1008.49 1009.03 1009.55 1010.02 1010.46 1010.84 1011.20 1011.54 1011.87 1012.19
1005.75 1005.64 1005.45 1005.15 1004.70 1004.10 1003.37 1002.55 1001.68 1000.84 1000.06 999.40 998.84 998.39 997.99 997.63 997.27 996.91 996.56 996.28 996.11 996.13 996.38 996.89 997.65 998.61 999.71 1000.84 1001.94 1002.93 1003.78 1004.46 1005.00 1005.44 1005.83 1006.21 1006.63 1007.10 1007.62 1008.17 1008.73 1009.28 1009.78 1010.24 1010.66 1011.05 1011.41 1011.77 1012.13
1005.82 1005.78 1005.66 1005.42 1005.01 1004.42 1003.67 1002.79 1001.85 1000.90 1000.02 999.24 998.59 998.04 997.58 997.16 996.75 996.34 995.96 995.63 995.42 995.40 995.62 996.12 996.88 997.87 999.01 1000.21 1001.38 1002.44 1003.35 1004.08 1004.65 1005.11 1005.50 1005.88 1006.28 1006.74 1007.25 1007.80 1008.37 1008.92 1009.45 1009.93 1010.37 1010.78 1011.16 1011.55 1011.94
1005.89 1005.94 1005.91 1005.76 1005.43 1004.90 1004.17 1003.28 1002.28 1001.27 1000.30 999.42 998.66 998.02 997.46 996.96 996.47 996.00 995.54 995.15 994.87 994.78 994.94 995.38 996.10 997.06 998.20 999.41 1000.62 1001.73 1002.70 1003.49 1004.12 1004.62 1005.05 1005.45 1005.88 1006.34 1006.85 1007.41 1007.98 1008.54 1009.07 1009.56 1010.01 1010.44 1010.85 1011.26 1011.68
1005.99 1006.13 1006.21 1006.17 1005.94 1005.49 1004.82 1003.97 1002.98 1001.93 1000.91 999.96 999.11 998.37 997.72 997.13 996.56 996.01 995.47 995.00 994.64 994.46 994.52 994.85 995.47 996.35 997.41 998.58 999.76 1000.88 1001.87 1002.71 1003.40 1003.97 1004.46 1004.92 1005.39 1005.89 1006.43 1007.00 1007.58 1008.14 1008.68 1009.18 1009.64 1010.07 1010.50 1010.93 1011.36
1006.13 1006.35 1006.52 1006.58 1006.46 1006.12 1005.55 1004.77 1003.83 1002.81 1001.78 1000.79 999.90 999.10 998.38 997.72 997.08 996.46 995.86 995.31 994.86 994.57 994.50 994.69 995.16 995.88 996.79 997.84 998.92 999.98 1000.96 1001.81 1002.55 1003.18 1003.75 1004.28 1004.82 1005.38 1005.96 1006.56 1007.17 1007.75 1008.29 1008.80 1009.27 1009.71 1010.14 1010.57 1011.02
1006.31 1006.56 1006.79 1006.93 1006.91 1006.68 1006.22 1005.55 1004.70 1003.76 1002.77 1001.81 1000.91 1000.09 999.35 998.65 997.98 997.32 996.68 996.08 995.55 995.17 994.96 994.99 995.26 995.77 996.47 997.32 998.23 999.16 1000.05 1000.87 1001.61 1002.29 1002.92 1003.54 1004.15 1004.78 1005.42 1006.07 1006.71 1007.32 1007.88 1008.40 1008.88 1009.32 1009.76 1010.19 1010.63
1006.52 1006.73 1006.96 1007.13 1007.17 1007.03 1006.69 1006.15 1005.43 1004.61 1003.72 1002.84 1001.99 1001.21 1000.48 999.79 999.13 998.48 997.84 997.22 996.65 996.19 995.86 995.72 995.79 996.06 996.50 997.09 997.77 998.51 999.25 999.98 1000.68 1001.36 1002.03 1002.70 1003.39 1004.08 1004.79 1005.49 1006.17 1006.81 1007.40 1007.94 1008.43 1008.89 1009.33 1009.76 1010.19
1006.73 1006.85 1007.00 1007.13 1007.19 1007.11 1006.87 1006.46 1005.90 1005.23 1004.48 1003.72 1002.97 1002.26 1001.59 1000.96 1000.35 999.74 999.13 998.53 997.97 997.46 997.06 996.77 996.65 996.68 996.86 997.17 997.59 998.08 998.63 999.21 999.82 1000.46 1001.13 1001.82 1002.55 1003.30 1004.05 1004.80 1005.52 1006.19 1006.81 1007.38 1007.89 1008.37 1008.81 1009.24 1009.67
1006.94 1006.89 1006.91 1006.95 1006.96 1006.91 1006.75 1006.46 1006.06 1005.55 1004.97 1004.35 1003.73 1003.12 1002.54 1001.98 1001.43 1000.89 1000.35 999.81 999.28 998.78 998.33 997.96 997.68 997.51 997.45 997.50 997.65 997.90 998.22 998.63 999.11 999.66 1000.28 1000.96 1001.68 1002.45 1003.23 1004.00 1004.75 1005.45 1006.10 1006.69 1007.23 1007.73 1008.19 1008.63 1009.05
1007.14 1006.88 1006.72 1006.62 1006.56 1006.49 1006.39 1006.21 1005.95 1005.60 1005.19 1004.72 1004.22 1003.72 1003.22 1002.73 1002.25 1001.78 1001.32 1000.85 1000.38 999.93 999.49 999.08 998.72 998.41 998.17 998.01 997.93 997.95 998.06 998.28 998.60 999.03 999.56 1000.18 1000.87 1001.61 1002.38 1003.15 1003.90 1004.61 1005.28 1005.89 1006.45 1006.97 1007.45 1007.90 1008.33
1007.33 1006.87 1006.51 1006.26 1006.10 1006.01 1005.93 1005.84 1005.71 1005.51 1005.24 1004.91 1004.52 1004.10 1003.66 1003.22 1002.78 1002.36 1001.96 1001.55 1001.16 1000.77 1000.38 999.99 999.61 999.24 998.89 998.59 998.35 998.19 998.12 998.16 998.33 998.63 999.04 999.56 1000.18 1000.86 1001.58 1002.31 1003.04 1003.74 1004.40 1005.02 1005.59 1006.12 1006.62 1007.09 1007.54
Thickness
5844 5848 5849 5844 5828 5817 5813 5832 5844 5842 5843 5851 5853 5845 5831 5820 5809 5795 5824 5835 5830 5821 5813 5807 5803 5799 5796 5793 5791 5788 5785 5783 5781 5779 5777 5775 5773 5772 5770 5769 5767 5766 5766 5764 5763 5763 5762 5762 5761
5849 5853 5849 5838 5817 5801 5810 5833 5838 5841 5849 5856 5852 5845 5833 5824 5829 5824 5827 5832 5830 5821 5813 5806 5800 5797 5794 5791 5788 5786 5783 5781 5779 5777 5775 5773 5771 5769 5768 5767 5765 5764 5763 5762 5761 5761 5760 5760 5760
5849 5854 5840 5831 5818 5808 5815 5835 5841 5850 5857 5853 5845 5843 5832 5823 5829 5828 5830 5834 5829 5820 5812 5803 5798 5795 5792 5789 5786 5784 5781 5779 5777 5775 5773 5771 5769 5767 5766 5764 5763 5762 5761 5760 5760 5759 5758 5758 5758
5848 5850 5840 5828 5821 5832 5837 5843 5851 5848 5851 5853 5845 5831 5830 5837 5834 5831 5834 5834 5827 5819 5810 5801 5796 5793 5790 5787 5784 5782 5779 5777 5775 5773 5771 5769 5767 5765 5764 5763 5761 5760 5759 5758 5758 5757 5757 5756 5756
5851 5837 5823 5817 5829 5843 5850 5854 5854 5844 5843 5846 5842 5822 5818 5834 5839 5835 5834 5832 5825 5817 5810 5800 5795 5791 5788 5785 5782 5780 5778 5775 5773 5771 5769 5767 5765 5764 5762 5761 5760 5758 5757 5756 5756 5755 5755 5755 5755
5837 5833 5810 5810 5827 5843 5852 5858 5853 5846 5843 5844 5838 5823 5817 5833 5833 5832 5833 5830 5826 5817 5808 5799 5794 5790 5786 5783 5780 5778 5776 5774 5772 5770 5768 5766 5764 5762 5761 5759 5758 5757 5756 5755 5754 5754 5754 5754 5754
5828 5820 5811 5821 5829 5835 5848 5859 5851 5844 5838 5840 5843 5821 5816 5825 5830 5832 5832 5829 5824 5818 5809 5800 5794 5789 5785 5782 5780 5777 5775 5773 5771 5768 5767 5765 5763 5761 5760 5759 5757 5756 5755 5754 5753 5753 5753 5753 5753
5844 5826 5817 5827 5830 5832 5851 5856 5855 5847 5840 5851 5846 5821 5811 5822 5831 5831 5829 5825 5821 5815 5809 5803 5797 5792 5787 5782 5779 5776 5774 5772 5769 5767 5766 5764 5762 5761 5760 5759 5757 5755 5754 5753 5752 5752 5752 5752 5753
5849 5816 5809 5828 5834 5835 5852 5849 5853 5858 5850 5847 5846 5836 5830 5831 5831 5825 5820 5817 5814 5811 5808 5805 5800 5795 5790 5786 5780 5776 5773 5771 5769 5767 5765 5764 5763 5762 5760 5759 5756 5755 5754 5752 5752 5751 5751 5751 5752
5838 5808 5816 5840 5847 5842 5848 5846 5848 5844 5835 5833 5833 5833 5833 5829 5824 5817 5812 5808 5807 5806 5806 5806 5801 5797 5793 5788 5781 5778 5775 5772 5769 5768 5766 5764 5764 5763 5761 5758 5756 5754 5753 5752 5751 5750 5750 5750 5751
5836 5820 5831 5844 5851 5849 5844 5845 5849 5837 5824 5828 5824 5825 5827 5823 5819 5816 5813 5810 5808 5807 5806 5805 5801 5797 5793 5789 5783 5780 5777 5773 5771 5769 5767 5765 5764 5763 5761 5758 5756 5754 5753 5752 5751 5750 5750 5751 5751
5834 5834 5839 5844 5850 5845 5840 5842 5839 5835 5832 5840 5838 5833 5827 5821 5818 5816 5812 5810 5808 5806 5804 5804 5801 5796 5792 5789 5785 5781 5778 5774 5771 5769 5766 5765 5765 5763 5762 5760 5757 5756 5755 5753 5753 5751 5752 5752 5752
5831 5834 5842 5847 5848 5846 5842 5836 5834 5833 5842 5843 5838 5832 5826 5821 5819 5818 5816 5812 5807 5802 5802 5801 5799 5794 5790 5787 5784 5781 5778 5775 5771 5768 5766 5765 5764 5762 5761 5759 5758 5757 5756 5755 5753 5752 5752 5751 5752
5834 5836 5838 5841 5841 5842 5832 5832 5830 5830 5841 5836 5831 5826 5825 5822 5820 5816 5810 5806 5802 5801 5799 5798 5796 5793 5789 5785 5782 5780 5778 5774 5772 5768 5765 5764 5762 5761 5759 5758 5757 5756 5756 5755 5753 5753 5751 5750 5750
5834 5823 5824 5829 5833 5836 5831 5816 5821 5834 5837 5828 5825 5824 5822 5820 5818 5811 5808 5804 5801 5800 5797 5795 5793 5790 5787 5784 5781 5780 5777 5774 5771 5768 5765 5763 5761 5759 5758 5757 5755 5754 5754 5753 5752 5752 5750 5749 5748
5819 5808 5799 5818 5827 5832 5819 5797 5820 5835 5831 5822 5821 5820 5817 5815 5814 5811 5807 5803 5801 5797 5794 5792 5792 5788 5785 5782 5779 5778 5776 5773 5770 5767 5764 5761 5759 5758 5756 5755 5753 5753 5752 5751 5750 5749 5747 5746 5746
5796 5788 5792 5809 5829 5829 5818 5803 5820 5832 5826 5819 5817 5815 5813 5809 5809 5807 5806 5801 5799 5796 5793 5790 5788 5785 5782 5779 5777 5775 5773 5771 5768 5765 5762 5759 5757 5756 5754 5752 5751 5751 5749 5748 5748 5746 5745 5743 5742
5783 5792 5797 5804 5822 5821 5811 5809 5818 5826 5824 5818 5816 5813 5809 5805 5803 5804 5803 5800 5798 5795 5791 5787 5783 5780 5778 5775 5772 5772 5770 5768 5766 5763 5760 5758 5755 5753 5752 5750 5749 5748 5747 5745 5745 5743 5743 5741 5741
5801 5800 5800 5813 5828 5818 5807 5808 5814 5819 5818 5814 5812 5809 5805 5802 5803 5802 5800 5798 5793 5789 5786 5782 5779 5777 5775 5771 5769 5766 5763 5763 5762 5761 5758 5756 5754 5752 5749 5748 5746 5745 5743 5742 5742 5740 5739 5738 5739
5798 5792 5796 5809 5824 5815 5803 5802 5812 5816 5813 5812 5809 5805 5803 5799 5797 5794 5793 5791 5788 5783 5781 5778 5776 5773 5772 5770 5768 5766 5764 5762 5760 5759 5757 5754 5752 5750 5748 5745 5744 5742 5740 5740 5739 5737 5734 5735 5736
5790 5787 5791 5797 5811 5814 5798 5789 5798 5808 5812 5811 5810 5807 5805 5799 5794 5790 5787 5786 5783 5779 5776 5775 5773 5771 5769 5768 5766 5764 5762 5759 5756 5754 5753 5752 5750 5748 5746 5744 5742 5740 5738 5737 5736 5734 5732 5729 5731
5779 5798 5798 5797 5791 5784 5790 5767 5784 5793 5794 5799 5801 5802 5801 5799 5795 5790 5785 5782 5780 5779 5777 5774 5770 5768 5766 5765 5763 5759 5755 5752 5752 5752 5751 5750 5748 5746 5744 5742 5739 5738 5736 5734 5733 5733 5731 5728 5725
5791 5805 5799 5795 5787 5780 5783 5770 5776 5789 5781 5785 5794 5798 5798 5797 5793 5789 5786 5781 5779 5778 5775 5771 5767 5764 5763 5762 5760 5757 5754 5752 5751 5750 5748 5746 5745 5744 5742 5739 5737 5735 5733 5732 5731 5729 5728 5727 5724
5800 5796 5792 5790 5781 5758 5770 5764 5762 5778 5779 5783 5790 5793 5795 5794 5791 5787 5784 5781 5777 5775 5772 5768 5763 5760 5759 5757 5756 5753 5750 5748 5746 5744 5743 5741 5740 5740 5738 5737 5734 5732 5731 5729 5728 5726 5725 5724 5723
5788 5769 5750 5746 5745 5750 5772 5761 5764 5781 5790 5791 5789 5789 5791 5790 5787 5780 5776 5774 5771 5769 5767 5764 5759 5755 5755 5754 5751 5750 5748 5746 5743 5741 5739 5737 5736 5734 5733 5733 5730 5729 5727 5726 5724 5723 5721 5721 5719
5777 5769 5742 5729 5735 5747 5763 5754 5766 5787 5792 5795 5790 5787 5785 5782 5781 5776 5772 5769 5766 5764 5762 5758 5755 5751 5750 5749 5747 5746 5744 5743 5741 5739 5737 5735 5733 5732 5731 5729 5727 5725 5724 5722 5721 5719 5718 5717 5716
5770 5769 5778 5760 5757 5751 5758 5765 5768 5780 5780 5782 5780 5777 5775 5773 5774 5771 5768 5766 5763 5759 5756 5754 5750 5747 5745 5744 5742 5741 5740 5739 5737 5736 5735 5732 5730 5730 5727 5725 5722 5721 5720 5718 5717 5715 5713 5712 5711
5780 5776 5765 5749 5731 5732 5748 5751 5751 5758 5764 5768 5768 5767 5768 5768 5767 5764 5763 5761 5758 5755 5752 5749 5746 5743 5741 5740 5738 5737 5736 5735 5734 5733 5730 5728 5726 5724 5722 5720 5718 5716 5715 5714 5712 5710 5709 5707 5706
5764 5761 5757 5750 5745 5729 5729 5739 5767 5761 5760 5759 5761 5763 5762 5761 5759 5758 5757 5755 5752 5749 5746 5743 5740 5738 5736 5735 5733 5732 5731 5730 5729 5728 5726 5724 5722 5720 5717 5715 5713 5712 5710 5709 5707 5705 5704 5702 5701
5761 5756 5752 5734 5732 5738 5729 5732 5765 5763 5759 5757 5756 5757 5757 5756 5754 5753 5751 5748 5745 5741 5739 5736 5734 5732 5731 5730 5728 5726 5725 5724 5723 5722 5720 5719 5717 5715 5713 5711 5709 5707 5706 5704 5702 5699 5699 5697 5696